Regional Weather Roundup
Issued by NWS Albany, NY

Home | Current Version | Previous Version | Graphics & Text | Print | Product List | Glossary On
Versions: 1 2 3 4 5 6 7 8 9 10 11 12 13 14 15 16 17 18 19 20 21 22 23 24 25 26 27 28 29 30 31 32 33 34 35 36 37 38 39 40 41 42 43 44 45 46 47 48 49 50
000
ASUS41 KALY 251510
RWRALY

NEW YORK STATE HOURLY WEATHER ROUNDUP
NATIONAL WEATHER SERVICE ALBANY NY
1100 AM EDT FRI JUL 25 2014

NOTE: "FAIR" INDICATES FEW OR NO CLOUDS BELOW 12,000 FEET WITH NO
SIGNIFICANT WEATHER AND/OR NO OBSTRUCTIONS TO VISIBILITY.

NYZ032-033-038>043-046>054-057>066-NYZ062>081-251600-
EAST


CITY           SKY/WX    TMP DP  RH WIND       PRES   REMARKS
ALBANY         MOSUNNY   71  55  56 CALM      30.03F
GLENS FALLS    SUNNY     69  57  65 SE7       30.02F
POUGHKEEPSIE   SUNNY     71  54  54 CALM      30.03F
NEWBURGH       SUNNY     66  59  77 W5        30.06F
MONTGOMERY     SUNNY     72  54  53 CALM      30.05S
WHITE PLAINS   SUNNY     73  53  49 NE6       30.02F
ISLIP          MOSUNNY   77  50  38 NE7       29.99F
NEW YORK CITY  NOT AVBL
CENTRAL PARK   SUNNY     74  52  46 VRB3      30.05F
$$

NYZ005>009-017-018-044>046-055-056-251600-
CENTRAL


CITY           SKY/WX    TMP DP  RH WIND       PRES   REMARKS
FULTON         SUNNY     71  53  52 W8        30.05F
SYRACUSE       SUNNY     73  52  47 W9        30.05F
ROME           SUNNY     68  57  68 VRB7      30.06F
ELMIRA         SUNNY     69  54  58 SW5       30.08F
BINGHAMTON     SUNNY     65  56  72 CALM      30.09F
MONTICELLO     SUNNY     70  54  56 NW5       30.09R
$$

NYZ026>034-041>043-251600-
NORTH


CITY           SKY/WX    TMP DP  RH WIND       PRES   REMARKS
WATERTOWN      SUNNY     71  56  58 SW10      30.03S
FORT DRUM      NOT AVBL
MASSENA        SUNNY     70  58  65 SW13      29.97F
SARANAC LAKE   SUNNY     68  54  60 SW12      30.01F
PLATTSBURGH    SUNNY     71  61  70 SE13      29.96F
$$

NYZ001>004-010>016-019>021-251600-
WEST


CITY           SKY/WX    TMP DP  RH WIND       PRES   REMARKS
NIAGARA FALLS  MOSUNNY   72  55  55 SW10      30.06R
BUFFALO        MOSUNNY   70  58  65 SW13      30.07R
DUNKIRK        MOSUNNY   70  54  56 W15G21    30.09R
JAMESTOWN      SUNNY     64  48  55 W6        30.12R
WELLSVILLE     PTSUNNY   67  53  61 CALM      30.13F
ROCHESTER      MOSUNNY   70  58  65 SW6       30.06F
PENN YAN       SUNNY     70  56  61 SW7       30.08F
$$

             KEY
       WCI = WIND CHILL INDEX
       VSB = VISIBILITY
       HX  = HEAT INDEX
$$



USA.gov is the U.S. government's official web portal to all federal, state and local government web resources and services.